Regional Weather Roundup
Issued by NWS

Home | Current Version | Previous Version | Graphics & Text | Print | Product List | Glossary Off
Versions: 1 2 3 4 5 6 7 8 9 10 11 12 13 14 15 16 17 18 19 20 21 22 23 24 25 26 27 28 29 30 31 32 33 34 35 36 37 38 39 40 41 42 43 44 45 46 47 48 49 50

000
ASUS45 KBOU 011607
RWRCO

WEATHER ROUNDUP FOR COLORADO
NATIONAL WEATHER SERVICE DENVER/BOULDER CO
1000 AM MDT FRI AUG 01 2014

NOTE: "FAIR" INDICATES FEW OR NO CLOUDS BELOW 12000 FEET WITH NO
SIGNIFICANT WEATHER AND/OR OBSTRUCTIONS TO VISIBILITY.

COZ001>005-013-030-031-011700-
...NORTHWEST COLORADO...

CITY           SKY/WX    TMP DP  RH WIND       PRES   REMARKS
CRAIG          MOSUNNY   63  51  65 W5        30.29S
HAYDEN         MOSUNNY   66  46  48 CALM      30.31S
MEEKER         CLOUDY    64  50  60 E14       30.33R
MOUNT WERNER   NOT AVBL
STEAMBOAT SPGS MOSUNNY   64  48  56 SW5       30.33R
WALDEN         SUNNY     55  39  54 CALM      30.42S
$$

COZ006>008-011-011700-
...WEST CENTRAL VALLEYS...

CITY           SKY/WX    TMP DP  RH WIND       PRES   REMARKS
GRAND JUNCTION PTSUNNY   71  53  52 W6        30.21S
MONTROSE       PTSUNNY   72  52  49 SW5       30.29S
EAGLE          PTSUNNY   61  54  77 CALM      30.39R
RIFLE          PTSUNNY   72  51  47 E5        30.26R
DELTA          PTSUNNY   75  51  43 CALM      30.25S
NUCLA          PTSUNNY   70  52  52 E5        30.32S
$$

COZ017>023-064>068-011700-
...SOUTHWEST COLORADO...

CITY           SKY/WX    TMP DP  RH WIND       PRES   REMARKS
DURANGO        MOSUNNY   69  50  50 SE10      30.34S
CORTEZ         CLOUDY    72  52  49 CALM      30.28S
PAGOSA SPRINGS CLOUDY    59  56  88 NE3       30.42S
TELLURIDE      NOT AVBL
WOLF CREEK PAS NOT AVBL
$$

COZ009-010-012-014-032>034-037-058>063-011700-
...CENTRAL COLORADO...

CITY           SKY/WX    TMP DP  RH WIND       PRES   REMARKS
ASPEN          CLOUDY    58  52  80 N5        30.40R
BUENA VISTA    CLOUDY    57  49  75 CALM      30.44S
COPPER MTN     CLOUDY    46  39  76 S16       30.66S
BERTHOUD PASS  PTSUNNY   37  37 100 SE14      30.70R
COTTONWOOD PAS CLOUDY    54  50  87 CALM      30.54F
GUNNISON       CLOUDY    54  48  82 NE5       30.45S
KREMMLING      CLOUDY    59  41  51 CALM      30.41S
LEADVILLE      LGT RAIN  48  46  93 S5          N/A  FOG
MONARCH PASS   LGT RAIN  43  41  93 W12       30.76S VSB<1/4
SALIDA         PTSUNNY   62  54  74 CALM      30.48F
SUNLIGHT       CLOUDY    54  46  76 CALM      30.60R
WILKERSON PASS CLOUDY    46  43  87 CALM      30.65R
$$

COZ069>075-011700-
...SAN LUIS VALLEY/SANGRE DE CRISTO MOUNTAINS...

CITY           SKY/WX    TMP DP  RH WIND       PRES   REMARKS
ALAMOSA        CLOUDY    61  52  72 VRB5      30.40S
LA VETA PASS   FOG       48  46  93 CALM      30.56R VSB<1/4
SAGUACHE       CLOUDY    59  50  72 CALM      30.43S
$$

COZ035-036-038>040-011700-
...NORTHERN COLORADO FRONT RANGE...

CITY           SKY/WX    TMP DP  RH WIND       PRES   REMARKS
DENVER INTL AP PTSUNNY   72  50  45 SW5       30.29S
DMNS CITY PARK   N/A     71  53  52 NW1       30.30S
AURORA         PTSUNNY   70  50  49 VRB1      30.31F
FRONT RANGE AP PTSUNNY   73  52  46 CALM      30.30F
ERIE MUNI ARPT MOSUNNY   71  50  48 N3        30.28S
BOULDER MUN AP MOSUNNY   70  50  49 SE3       30.29S
CENTENNIAL     PTSUNNY   71  45  39 SE7       30.31F
BROOMFIELD     PTSUNNY   72  48  43 VRB3      30.32R
FORT COLLINS   MOSUNNY   72  48  43 SW3       30.28F
LONGMONT       MOSUNNY   76  48  38 CALM      30.29S
$$

COZ041-046-047-076>085-087-088-011700-
...PIKES PEAK/PALMER DIVIDE AND SOUTHERN FOOTHILLS...

CITY           SKY/WX    TMP DP  RH WIND       PRES   REMARKS
COLO. SPRINGS  PTSUNNY   67  52  58 VRB3      30.35F
A. F. ACADEMY  MOSUNNY   64  53  67 S3        30.36F
ELLICOTT       MOSUNNY   66  53  63 W6        30.34S
FALCON         MOSUNNY   65  50  57 S3        30.39S
FORT CARSON    PTSUNNY   66  55  67 CALM      30.33F
LIMON          SUNNY     73  47  39 SW3       30.30S
MONUMENT HILL  MOSUNNY   66  43  42 S7        30.38S
TRINIDAD       PTSUNNY   66  55  67 NW6       30.32S
$$

COZ042>045-048>051-090-091-011700-
...NORTHEAST COLORADO...

CITY           SKY/WX    TMP DP  RH WIND       PRES   REMARKS
GREELEY ARPT   MOSUNNY   73  54  49 SW6       30.27S
AKRON          MOSUNNY   74  54  49 W6        30.26R
BURLINGTON     MOSUNNY   79  47  32 W7        30.23F
WRAY             N/A     81  53  37 SE3       30.20S
STERLING       MOSUNNY   77  63  61 SW3       30.21S
HOLYOKE        SUNNY     81  55  41 CALM      30.20S
FORT MORGAN    MOSUNNY   74  54  50 W6        30.26S
$$

COZ086-089-092>099-011700-
...SOUTHEAST COLORADO...

CITY           SKY/WX    TMP DP  RH WIND       PRES   REMARKS
PUEBLO         PTSUNNY   71  59  65 CALM      30.27S
LA JUNTA       SUNNY     73  55  53 CALM      30.25S
LAMAR          SUNNY     73  58  59 CALM      30.21S
SPRINGFIELD      N/A     73  54  51 SW7       30.25S
$$


USA.gov is the U.S. government's official web portal to all federal, state and local government web resources and services.